Powrót do katalogu

STARLINK-36087

AktywnyŁącznośćVLEO
NORAD 66854·PAYLOAD·🇺🇸 United States

Wystrzelony Dec 2, 2025 z Cape Canaveral Space Force Station

Loading…

Następne Przeloty (najbliższe 24 godziny)

TLE

ŚwieżeSource: CelesTrak SupGP

Epoka: Sep 14, 2026, 21:27 UTC

1 66854C 25281G   26257.89423611  .00000163  00000+0  59099-5 0  2576
2 66854  43.0015 354.7074 0001440 274.8638 122.7476 15.27570414    17

Śledź STARLINK-36087 w czasie rzeczywistym z AllMySat

Download on the App Store